timestamp,TimeUS,Alt,Press,Temp,CRt,SMS,Offset,GndTemp,Health
1663666080.51087904,5852151,-3.2261455059051514,102066.9609375,57.18,0.0,5852,0.0,0.0,1
1663666080.62178016,5963052,-3.316317319869995,102068.1328125,57.160000000000004,0.0,5963,0.0,0.0,1
1663666080.73284316,6074115,-3.4816322326660156,102070.2421875,57.15,0.0,6074,0.0,0.0,1
1663666080.84390521,6185177,-3.5116894245147705,102070.640625,57.14,0.0,6185,0.0,0.0,1
1663666080.95499921,6296271,-3.5768134593963623,102071.484375,57.120000000000005,0.0,6296,0.0,0.0,1
1663666081.06607604,6407348,-3.4565844535827637,102069.9453125,57.09,-0.7710698246955872,6407,0.0,0.0,1
1663666081.17712021,6518392,-3.4966607093811035,102070.4609375,57.07,-0.3680996000766754,6518,0.0,0.0,1
1663666081.28817105,6629443,-3.4615941047668457,102069.9765625,57.04,0.019744977355003357,6629,0.0,0.0,1
1663666081.39929914,6740571,-3.4565844535827637,102069.9453125,57.02,0.1762930154800415,6740,0.0,0.0,1
1663666081.51036406,6851636,-3.381441354751587,102068.984375,56.99,0.16501009464263916,6851,0.0,0.0,1
1663666081.62146211,6962734,-3.331345796585083,102068.328125,56.97,0.2101411372423172,6962,0.0,0.0,1
1663666081.72237420,7063646,-3.1960883140563965,102066.59375,56.94,0.37344890832901,7063,0.0,0.0,1
1663666081.82324719,7164519,-3.286259889602661,102067.75,56.92,0.5432437062263489,7164,0.0,0.0,1
1663666081.92415524,7265427,-3.2562026977539062,102067.359375,56.9,0.5346270203590393,7265,0.0,0.0,1
1663666082.02491617,7366188,-3.2311549186706543,102067.0546875,56.88,0.28852447867393494,7366,0.0,0.0,1
1663666083.10012221,8441394,0.29952627420425415,102064.03125,56.82,0.4650762677192688,8441,0.0,35.0,1
1663666083.20008111,8541353,-0.16954317688941956,102069.34375,56.910000000000004,1.7290657758712769,8541,0.0,35.0,1
1663666083.30006719,8641339,-0.10172590613365173,102068.6015625,56.92,2.4442498683929443,8641,0.0,35.0,1
1663666083.40012622,8741398,-0.20345181226730347,102069.7421875,56.92,2.327042818069458,8741,0.0,35.0,1
1663666083.50009108,8841363,-0.1525888592004776,102069.1640625,56.9,0.8432697653770447,8841,0.0,35.0,1
1663666083.60014319,8941415,-0.1412859708070755,102069.0234375,56.910000000000004,-0.2502845525741577,8941,0.0,35.0,1
1663666083.70014501,9041417,0.04803723096847534,102066.8671875,56.9,-0.1227421909570694,9041,0.0,35.0,1
1663666083.80021715,9141489,-0.40690362453460693,102072.0625,56.910000000000004,0.2101629227399826,9141,0.0,35.0,1
1663666083.90021324,9241485,-0.011302878148853779,102067.546875,56.910000000000004,0.08742068707942963,9241,0.0,35.0,1
1663666084.00016022,9341432,0.20910324156284332,102065.0546875,56.93,-0.10949664562940598,9341,0.0,35.0,1
1663666084.10008717,9441359,-0.7798985838890076,102076.265625,56.95,0.14923329651355743,9441,0.0,35.0,1
1663666084.20009708,9541369,0.005651439074426889,102067.3515625,56.96,-0.026491111144423485,9541,0.0,35.0,1
1663666084.30014610,9641418,-0.4690694510936737,102072.703125,56.980000000000004,-0.8468327522277832,9641,0.0,35.0,1
1663666084.40013003,9741402,-0.41820648312568665,102072.1796875,56.99,-0.8936338424682617,9741,0.0,35.0,1
1663666084.50021720,9841489,-0.49732664227485657,102073.0703125,57.02,-0.4503490626811981,9841,0.0,35.0,1
1663666084.60022807,9941500,-0.42950937151908875,102072.2578125,57.03,-0.5086296200752258,9941,0.0,35.0,1
1663666084.70026803,10041540,-1.0681220293045044,102079.53125,57.06,-0.6781727075576782,10041,0.0,35.0,1
1663666084.80028820,10141560,-0.2938748300075531,102070.765625,57.06,-0.8600785136222839,10141,0.0,35.0,1
1663666084.90018106,10241453,-1.0285619497299194,102079.0546875,57.1,-0.9112946391105652,10241,0.0,35.0,1
1663666085.00018001,10341452,-0.892927348613739,102077.515625,57.1,-0.6004654765129089,10341,0.0,35.0,1
1663666085.10012102,10441393,-0.32213202118873596,102071.0546875,57.11,-0.46271148324012756,10441,0.0,35.0,1
1663666085.20020008,10541472,-0.9381389021873474,102078.0390625,57.120000000000005,-0.16247878968715668,10541,0.0,35.0,1
1663666085.30016613,10641438,-1.2602709531784058,102081.65625,57.160000000000004,0.23842011392116547,10641,0.0,35.0,1
1663666085.40024519,10741517,-0.8703216314315796,102077.2421875,57.160000000000004,-0.5404189229011536,10741,0.0,35.0,1
1663666085.50022602,10841498,-0.9607446193695068,102078.2734375,57.18,-1.4163920879364014,10841,0.0,35.0,1
1663666085.60027623,10941548,-1.5258885622024536,102084.703125,57.2,-0.8901016712188721,10941,0.0,35.0,1
1663666085.70027423,11041546,-0.9550932049751282,102078.25,57.2,-0.4644775092601776,11041,0.0,35.0,1
1663666085.80020022,11141472,-1.350693941116333,102082.734375,57.230000000000004,-0.7717745900154114,11141,0.0,35.0,1
1663666085.90016818,11241440,-1.3846025466918945,102083.1171875,57.24,-0.6304886937141418,11241,0.0,35.0,1
1663666086.00013423,11341406,-1.469374179840088,102084.0625,57.25,-0.4432847499847412,11341,0.0,35.0,1
1663666086.10017014,11441442,-1.209407925605774,102081.1328125,57.24,-0.6781727075576782,11441,0.0,35.0,1
1663666086.20017409,11541446,-1.6897802352905273,102086.578125,57.26,-0.5545474886894226,11541,0.0,35.0,1
1663666086.30023217,11641504,-1.6954317092895508,102086.6328125,57.27,-0.38147202134132385,11641,0.0,35.0,1
1663666086.40022421,11741496,-1.390254020690918,102083.1328125,57.27,-0.7452834844589233,11741,0.0,35.0,1
1663666086.50026321,11841535,-1.3676482439041138,102082.8828125,57.28,-0.6552137732505798,11841,0.0,35.0,1
1663666086.60028219,11941554,-0.9211845397949219,102077.8359375,57.27,0.44151854515075684,11941,0.0,35.0,1
1663666086.70019317,12041465,-1.5202370882034302,102084.6484375,57.28,1.3757719993591309,12041,0.0,35.0,1
1663666086.80018210,12141454,-1.3224366903305054,102082.359375,57.300000000000004,1.0667091608047485,12141,0.0,35.0,1
1663666086.90012312,12241395,-1.5597971677780151,102085.046875,57.300000000000004,-0.11126261204481125,12241,0.0,35.0,1
1663666087.00018620,12341458,-1.5541456937789917,102085.0390625,57.300000000000004,-0.9183588624000549,12341,0.0,35.0,1
1663666087.10015702,12441429,-1.271573781967163,102081.8203125,57.31,-0.8229907751083374,12441,0.0,35.0,1
1663666087.20026112,12541533,-1.0681220293045044,102079.5390625,57.300000000000004,-0.09713412821292877,12541,0.0,35.0,1
1663666087.30023503,12641507,-1.6276144981384277,102085.828125,57.32,0.7346869707107544,12641,0.0,35.0,1
1663666087.40027618,12741548,-1.8480205535888672,102088.359375,57.33,0.510395348072052,12741,0.0,35.0,1
1663666087.50026011,12841532,-1.1811507940292358,102080.7734375,57.33,-0.805330216884613,12841,0.0,35.0,1
1663666087.60020113,12941473,-1.3846025466918945,102083.1015625,57.33,-1.0525805950164795,12941,0.0,35.0,1
1663666087.70017314,13041445,-1.2546194791793823,102081.609375,57.33,0.3072970509529114,13041,0.0,35.0,1
1663666087.80013204,13141404,-1.4411169290542603,102083.7421875,57.34,1.0737733840942383,13141,0.0,35.0,1
1663666087.90018916,13241461,-0.9550932049751282,102078.2421875,57.35,0.6039975881576538,13241,0.0,35.0,1
1663666088.00016618,13341438,-1.7293403148651123,102086.96875,57.35,0.23135584592819214,13341,0.0,35.0,1
1663666088.10024524,13441517,-1.2602709531784058,102081.703125,57.36,0.012362543493509293,13441,0.0,35.0,1
1663666088.20022607,13541498,-1.4750256538391113,102084.1328125,57.35,-0.4856705963611603,13541,0.0,35.0,1
1663666088.30026317,13641535,-0.7742471694946289,102076.171875,57.35,-0.3691098093986511,13641,0.0,35.0,1
1663666088.40028906,13741561,-1.5541456937789917,102085.03125,57.36,0.5881026983261108,13741,0.0,35.0,1
1663666088.50018120,13841453,-1.1415907144546509,102080.328125,57.35,0.9201250076293945,13841,0.0,35.0,1
1663666088.60018015,13941452,-2.085381031036377,102091.0,57.370000000000005,-0.08653748780488968,13941,0.0,35.0,1
1663666088.70012617,14041398,-1.0342133045196533,102079.15625,57.370000000000005,-1.266275405883789,14041,0.0,35.0,1
1663666088.80016422,14141436,-1.4128597974777222,102083.421875,57.36,-1.135585904121399,14141,0.0,35.0,1
1663666088.90015411,14241426,-1.418511152267456,102083.4921875,57.370000000000005,0.14305207133293152,14241,0.0,35.0,1
1663666089.00023603,14341508,-1.2320137023925781,102081.3671875,57.370000000000005,0.8053300976753235,14341,0.0,35.0,1
1663666089.10022020,14441492,-1.491979956626892,102084.296875,57.38,0.3567471206188202,14441,0.0,35.0,1
1663666089.20026517,14541537,-1.7406432628631592,102087.1171875,57.38,-0.18190573155879974,14541,0.0,35.0,1
1663666089.30029511,14641567,-2.07407808303833,102090.8984375,57.39,-0.8494821190834045,14641,0.0,35.0,1
1663666089.40019202,14741464,-1.8141119480133057,102087.96875,57.38,-1.7395837306976318,14741,0.0,35.0,1
1663666089.50016618,14841438,-1.3563454151153564,102082.765625,57.370000000000005,-1.6177242994308472,14841,0.0,35.0,1
1663666089.60013413,14941406,-1.090727686882019,102079.75,57.370000000000005,0.09890022873878479,14941,0.0,35.0,1
1663666089.70016217,15041434,-1.1189849376678467,102080.0859375,57.370000000000005,2.050412654876709,15041,0.0,35.0,1
1663666089.80017424,15141446,-1.9893065690994263,102089.953125,57.39,2.2464473247528076,15141,0.0,35.0,1
1663666089.90022016,15241492,-1.4241626262664795,102083.5390625,57.38,0.35498106479644775,15241,0.0,35.0,1
1663666090.00023723,15341509,-1.8819291591644287,102088.7265625,57.38,-1.5099937915802002,15341,0.0,35.0,1
1663666090.10026002,15441532,-1.2941795587539673,102082.09375,57.38,-1.4464150667190552,15441,0.0,35.0,1
1663666090.20028806,15541560,-1.2772252559661865,102081.8828125,57.38,-0.10949655622243881,15541,0.0,35.0,1
1663666090.30018902,15641461,-1.5484943389892578,102084.953125,57.38,0.9589784741401672,15641,0.0,35.0,1
1663666090.40017819,15741450,-1.5032827854156494,102084.40625,57.38,0.941317617893219,15741,0.0,35.0,1
1663666090.50010920,15841381,-1.5428428649902344,102084.890625,57.38,0.03885354474186897,15841,0.0,35.0,1
1663666090.60014820,15941420,-1.6332658529281616,102085.890625,57.38,-0.5863367915153503,15941,0.0,35.0,1
1663666090.70016217,16041434,-1.4072083234786987,102083.34375,57.36,-0.47154179215431213,16041,0.0,35.0,1
1663666090.80023813,16141510,-1.5484943389892578,102084.9296875,57.38,-0.11126261949539185,16141,0.0,35.0,1
1663666090.90024805,16241520,-1.537191390991211,102084.8359375,57.35,0.158946692943573,16241,0.0,35.0,1
1663666091.00025702,16341529,-1.9327921867370605,102089.28125,57.370000000000005,0.005298148840665817,16341,0.0,35.0,1
1663666091.10026121,16441533,-1.4128597974777222,102083.421875,57.370000000000005,-0.5368868112564087,16441,0.0,35.0,1
1663666091.20020103,16541473,-1.6163115501403809,102085.6953125,57.370000000000005,-0.602231502532959,16541,0.0,35.0,1
1663666091.30016422,16641436,-1.3563454151153564,102082.7890625,57.370000000000005,0.12539125978946686,16641,0.0,35.0,1
1663666091.40012622,16741398,-1.2207108736038208,102081.2421875,57.370000000000005,0.8229907751083374,16741,0.0,35.0,1
1663666091.50016403,16841436,-1.2772252559661865,102081.859375,57.370000000000005,1.0596446990966797,16841,0.0,35.0,1
1663666091.60017824,16941450,-1.0681220293045044,102079.5078125,57.35,1.0578786134719849,16941,0.0,35.0,1
1663666091.70024204,17041514,-1.8819291591644287,102088.6875,57.38,0.6622779965400696,17041,0.0,35.0,1
1663666091.80024719,17141519,-1.966700792312622,102089.6875,57.370000000000005,-0.5280562043190002,17141,0.0,35.0,1
1663666091.90026021,17241532,-1.469374179840088,102084.0546875,57.38,-1.91265869140625,17241,0.0,35.0,1
1663666092.00028419,17341556,-1.6050087213516235,102085.609375,57.370000000000005,-1.7643085718154907,17341,0.0,35.0,1
1663666092.10018206,17441454,-1.6841288805007935,102086.5078125,57.370000000000005,-0.15364862978458405,17441,0.0,35.0,1
1663666092.20018911,17541461,-2.0627753734588623,102090.75,57.370000000000005,0.5015650391578674,17541,0.0,35.0,1
1663666092.30011106,17641383,-1.7406432628631592,102087.125,57.39,-0.4114955961704254,17641,0.0,35.0,1
1663666092.40017915,17741451,-1.0850763320922852,102079.71875,57.36,-0.7788389921188354,17741,0.0,35.0,1
1663666092.50017524,17841447,-1.2885280847549438,102082.015625,57.370000000000005,0.6181262135505676,17841,0.0,35.0,1
1663666092.60023618,17941508,-0.9042302370071411,102077.6640625,57.36,2.2411491870880127,17941,0.0,35.0,1
1663666092.70021820,18041490,-1.797157645225525,102087.75,57.370000000000005,2.1192898750305176,18041,0.0,35.0,1
1663666092.80027413,18141546,-1.20375657081604,102081.078125,57.36,0.48037242889404297,18141,0.0,35.0,1
1663666092.90027213,18241544,-1.531540036201477,102084.734375,57.38,-0.8777392506599426,18241,0.0,35.0,1
1663666093.00025511,18341527,-1.9101864099502563,102089.0625,57.38,-1.0296218395233154,18341,0.0,35.0,1
1663666093.10016823,18441440,-1.4467684030532837,102083.765625,57.370000000000005,-0.8918678164482117,18441,0.0,35.0,1
1663666093.20013309,18541405,-1.746294617652893,102087.203125,57.38,-0.9289551377296448,18541,0.0,35.0,1
1663666093.30016017,18641432,-1.3619967699050903,102082.859375,57.36,-0.40972915291786194,18641,0.0,35.0,1
1663666093.40016603,18741438,-1.9893065690994263,102089.9296875,57.370000000000005,0.2225256711244583,18741,0.0,35.0,1
1663666093.50022912,18841501,-1.1981050968170166,102080.984375,57.370000000000005,0.1377539038658142,18841,0.0,35.0,1
1663666093.60022211,18941494,-1.6163115501403809,102085.7265625,57.370000000000005,0.022958854213356972,18941,0.0,35.0,1
1663666093.70026112,19041533,-1.5597971677780151,102085.0546875,57.370000000000005,0.3832380771636963,19041,0.0,35.0,1
1663666093.80028105,19141553,-1.458071231842041,102083.890625,57.370000000000005,0.4256240427494049,19141,0.0,35.0,1
1663666093.90017724,19241449,-1.350693941116333,102082.6953125,57.370000000000005,0.10243242233991623,19241,0.0,35.0,1
1663666094.00019121,19341463,-1.4524198770523071,102083.8828125,57.370000000000005,0.22429151833057404,19341,0.0,35.0,1
1663666094.10013008,19441402,-1.3959054946899414,102083.234375,57.38,0.4697757661342621,19441,0.0,35.0,1
1663666094.20015621,19541428,-1.20375657081604,102081.0546875,57.370000000000005,0.34261825680732727,19541,0.0,35.0,1
1663666094.30016923,19641441,-1.2376651763916016,102081.421875,57.36,0.34791654348373413,19641,0.0,35.0,1
1663666094.40026021,19741532,-1.7067346572875977,102086.75,57.370000000000005,0.4521150588989258,19741,0.0,35.0,1
1663666094.50022817,19841500,-1.4806770086288452,102084.1796875,57.370000000000005,-0.11126270890235901,19841,0.0,35.0,1
1663666094.60028911,19941561,-1.6728259325027466,102086.3515625,57.36,-0.9607445001602173,19941,0.0,35.0,1
1663666094.70027304,20041545,-1.458071231842041,102083.9140625,57.38,-0.9854694604873657,20041,0.0,35.0,1
1663666094.80019116,20141463,-1.571100115776062,102085.203125,57.370000000000005,-0.3373200297355652,20141,0.0,35.0,1
1663666094.90017319,20241445,-2.1305925846099854,102091.5234375,57.38,-0.07417511194944382,20241,0.0,35.0,1
1663666095.00014305,20341415,-1.7745518684387207,102087.53125,57.38,-0.6746408343315125,20341,0.0,35.0,1
1663666095.10019517,20441467,-2.4696788787841797,102095.359375,57.38,-1.4870351552963257,20441,0.0,35.0,1
1663666095.20018101,20541453,-1.4524198770523071,102083.8671875,57.36,-1.5135259628295898,20541,0.0,35.0,1
1663666095.30024314,20641515,-1.9553979635238647,102089.5625,57.38,-0.5368866324424744,20641,0.0,35.0,1
1663666095.40021706,20741489,-1.4411169290542603,102083.7109375,57.38,0.7629442811012268,20741,0.0,35.0,1
1663666095.50026202,20841534,-1.531540036201477,102084.78125,57.36,1.4075615406036377,20841,0.0,35.0,1
1663666095.60027122,20941543,-1.9780036211013794,102089.828125,57.36,1.126755714416504,20941,0.0,35.0,1
1663666095.70018816,21041460,-1.7745518684387207,102087.4765625,57.370000000000005,0.22252555191516876,21041,0.0,35.0,1
1663666095.80017805,21141450,-1.7293403148651123,102087.0,57.38,-0.6993654370307922,21141,0.0,35.0,1
1663666095.90011716,21241389,-1.9327921867370605,102089.328125,57.38,-0.7329208850860596,21241,0.0,35.0,1
1663666096.00017023,21341442,-1.2828766107559204,102081.9296875,57.370000000000005,-0.06357864290475845,21341,0.0,35.0,1
1663666096.10016012,21441432,-1.927140712738037,102089.21875,57.38,0.4980330765247345,21441,0.0,35.0,1
1663666096.20025301,21541525,-0.9211845397949219,102077.8671875,57.36,0.8371194005012512,21541,0.0,35.0,1
1663666096.30021310,21641485,-1.2207108736038208,102081.25,57.370000000000005,1.1921005249023438,21641,0.0,35.0,1
1663666096.40025520,21741527,-1.3789511919021606,102083.0234375,57.370000000000005,1.5647422075271606,21741,0.0,35.0,1
1663666096.50027919,21841551,-1.7067346572875977,102086.703125,57.38,1.0543464422225952,21841,0.0,35.0,1
1663666096.60020804,21941480,-1.3732997179031372,102082.9296875,57.370000000000005,-0.4680100083351135,21941,0.0,35.0,1
1663666096.70016623,22041438,-1.4072083234786987,102083.375,57.370000000000005,-1.1620773077011108,22041,0.0,35.0,1
1663666096.80012703,22141399,-1.7123860120773315,102086.7890625,57.370000000000005,-0.4715418219566345,22141,0.0,35.0,1
1663666096.90017509,22241447,-1.1415907144546509,102080.3671875,57.36,0.07594144344329834,22241,0.0,35.0,1
1663666097.00018716,22341459,-1.6841288805007935,102086.5078125,57.370000000000005,0.08123960345983505,22341,0.0,35.0,1
1663666097.10025311,22441525,-1.4637227058410645,102083.96875,57.370000000000005,0.10243229568004608,22441,0.0,35.0,1
1663666097.20024419,22541516,-1.576751470565796,102085.2578125,57.36,-0.09006988257169724,22541,0.0,35.0,1
1663666097.30025721,22641529,-1.5089342594146729,102084.515625,57.36,-0.36557742953300476,22641,0.0,35.0,1
1663666097.40029001,22741562,-2.017563819885254,102090.28125,57.36,-0.3867702782154083,22741,0.0,35.0,1
1663666097.50020123,22841473,-1.746294617652893,102087.2109375,57.370000000000005,-0.676406741142273,22841,0.0,35.0,1
1663666097.60018301,22941455,-1.718037486076355,102086.8828125,57.370000000000005,-1.052580714225769,22941,0.0,35.0,1
1663666097.70012403,23041396,-1.531540036201477,102084.75,57.370000000000005,-0.5686760544776917,23041,0.0,35.0,1
1663666097.80017805,23141450,-1.8480205535888672,102088.3359375,57.38,0.35498109459877014,23141,0.0,35.0,1
1663666097.90016007,23241432,-1.2772252559661865,102081.859375,57.370000000000005,0.6198921203613281,23241,0.0,35.0,1
1663666098.00023818,23341510,-1.7123860120773315,102086.8125,57.36,0.4786062240600586,23341,0.0,35.0,1
1663666098.10020924,23441481,-1.5032827854156494,102084.453125,57.38,0.4803723990917206,23441,0.0,35.0,1
1663666098.20026112,23541533,-1.7689003944396973,102087.4140625,57.38,0.23135587573051453,23541,0.0,35.0,1
1663666098.30028224,23641554,-2.0288665294647217,102090.3828125,57.38,-0.4097291827201843,23641,0.0,35.0,1
1663666098.40019107,23741463,-1.9780036211013794,102089.8046875,57.38,-1.0684751272201538,23741,0.0,35.0,1
1663666098.50017309,23841445,-1.4863284826278687,102084.2109375,57.38,-1.218591332435608,23841,0.0,35.0,1
1663666098.60014224,23941414,-1.6954317092895508,102086.609375,57.370000000000005,-0.3002327084541321,23941,0.0,35.0,1
1663666098.70018005,24041452,-2.5318446159362793,102096.0625,57.39,0.6181260347366333,24041,0.0,35.0,1
1663666098.80017519,24141447,-1.4863284826278687,102084.2109375,57.36,-0.09890026599168777,24141,0.0,35.0,1
1663666098.90023422,24241506,-1.9158378839492798,102089.1015625,57.38,-0.9837035536766052,24241,0.0,35.0,1
1663666099.00023913,24341511,-1.1868021488189697,102080.8828125,57.36,0.03708750754594803,24341,0.0,35.0,1
1663666099.10027003,24441542,-1.785854697227478,102087.6171875,57.38,1.5046955347061157,24441,0.0,35.0,1
1663666099.20028114,24541553,-1.6163115501403809,102085.703125,57.370000000000005,1.425222396850586,24541,0.0,35.0,1
1663666099.30019712,24641469,-1.5993572473526,102085.484375,57.36,0.33202216029167175,24641,0.0,35.0,1
1663666099.40018201,24741454,-0.6499155163764954,102074.765625,57.35,-0.01412857137620449,24741,0.0,35.0,1
1663666099.50012112,24841393,-1.8480205535888672,102088.3515625,57.370000000000005,0.9837035536766052,24841,0.0,35.0,1
1663666099.60019517,24941467,-1.1189849376678467,102080.0625,57.35,1.453479290008545,24941,0.0,35.0,1
1663666099.70015311,25041425,-1.5937057733535767,102085.453125,57.36,0.29316839575767517,25041,0.0,35.0,1
1663666099.80025411,25141526,-1.9158378839492798,102089.109375,57.370000000000005,-0.8194586634635925,25141,0.0,35.0,1
1663666099.90023303,25241505,-1.1924536228179932,102080.8984375,57.34,-1.0578786134719849,25241,0.0,35.0,1
1663666100.00026917,25341541,-2.1701526641845703,102091.953125,57.370000000000005,-0.9006983041763306,25341,0.0,35.0,1
1663666100.10028720,25441559,-1.3563454151153564,102082.7890625,57.35,-0.5333546996116638,25441,0.0,35.0,1
1663666100.20019412,25541466,-1.67847740650177,102086.4296875,57.36,-0.2755078077316284,25541,0.0,35.0,1
1663666100.30016518,25641437,-1.8423690795898438,102088.25,57.35,-0.03708762302994728,25641,0.0,35.0,1
1663666100.40013003,25741402,-1.4524198770523071,102083.859375,57.35,0.10066645592451096,25741,0.0,35.0,1
1663666100.50016809,25841440,-1.927140712738037,102089.2421875,57.36,-0.09183569997549057,25841,0.0,35.0,1
1663666100.60017610,25941448,-1.67847740650177,102086.40625,57.36,-0.20663073658943176,25941,0.0,35.0,1
1663666100.70022917,26041501,-1.4411169290542603,102083.75,57.33,-0.15894676744937897,26041,0.0,35.0,1
1663666100.80022907,26141501,-1.5428428649902344,102084.890625,57.36,0.1907360851764679,26141,0.0,35.0,1
1663666100.90024710,26241519,-1.6841288805007935,102086.46875,57.35,0.6958335041999817,26241,0.0,35.0,1
1663666101.00028515,26341557,-1.5484943389892578,102084.953125,57.35,0.4856705069541931,26341,0.0,35.0,1
1663666101.10018516,26441457,-1.4241626262664795,102083.515625,57.34,-0.06004670262336731,26441,0.0,35.0,1
1663666101.20018005,26541452,-1.8480205535888672,102088.3203125,57.35,-0.040619779378175735,26541,0.0,35.0,1
1663666101.30010605,26641378,-1.7632490396499634,102087.3671875,57.34,-0.07594113051891327,26641,0.0,35.0,1
1663666101.40017509,26741447,-2.23231840133667,102092.7109375,57.35,-0.7823710441589355,26741,0.0,35.0,1
1663666101.50016809,26841440,-1.7519460916519165,102087.2265625,57.34,-1.4057954549789429,26841,0.0,35.0,1
1663666101.60023808,26941510,-1.537191390991211,102084.8359375,57.34,-1.0066626071929932,26941,0.0,35.0,1
1663666101.70024109,27041513,-1.2885280847549438,102081.9765625,57.34,0.44858309626579285,27041,0.0,35.0,1
1663666101.80026913,27141541,-1.5597971677780151,102085.1015625,57.35,1.7696069478988647,27141,0.0,35.0,1
1663666101.90027118,27241543,-1.5202370882034302,102084.65625,57.34,1.6406834125518799,27241,0.0,35.0,1
1663666102.00019407,27341466,-1.5032827854156494,102084.4375,57.34,0.48213836550712585,27341,0.0,35.0,1
1663666102.10016418,27441436,-1.576751470565796,102085.25,57.34,-0.2649112045764923,27441,0.0,35.0,1
1663666102.20012808,27541400,-1.5258885622024536,102084.6875,57.34,-0.26844337582588196,27541,0.0,35.0,1
1663666102.30017304,27641445,-1.469374179840088,102084.0546875,57.34,-0.10243237018585205,27641,0.0,35.0,1
1663666102.40016508,27741437,-1.4806770086288452,102084.203125,57.34,0.052982158958911896,27741,0.0,35.0,1
1663666102.50023317,27841505,-0.9607446193695068,102078.3203125,57.34,0.37087562680244446,27841,0.0,35.0,1
1663666102.60022616,27941498,-1.169847846031189,102080.671875,57.34,0.944849967956543,27941,0.0,35.0,1
1663666102.70026922,28041541,-1.8706263303756714,102088.609375,57.35,1.1479486227035522,28041,0.0,35.0,1
1663666102.80027723,28141549,-1.4072083234786987,102083.3359375,57.34,0.02119298279285431,28141,0.0,35.0,1
1663666102.90017915,28241451,-1.537191390991211,102084.8515625,57.35,-1.3510470390319824,28241,0.0,35.0,1
1663666103.00020623,28341478,-1.8084604740142822,102087.859375,57.36,-1.193866491317749,28341,0.0,35.0,1
1663666103.10011911,28441391,-1.1472421884536743,102080.4140625,57.34,-0.33555418252944946,28441,0.0,35.0,1
1663666103.20017719,28541449,-1.2772252559661865,102081.875,57.34,0.2437182068824768,28541,0.0,35.0,1
1663666103.30016804,28641440,-1.718037486076355,102086.875,57.35,0.8194584250450134,28641,0.0,35.0,1
1663666103.40025020,28741522,-1.2885280847549438,102082.03125,57.34,0.6410850286483765,28741,0.0,35.0,1
1663666103.50023317,28841505,-1.571100115776062,102085.1953125,57.34,-0.2525486648082733,28841,0.0,35.0,1